Back to catalog

STARLINK-6113

AliveCommunicationsVLEO
NORAD 56113·PAYLOAD·🇺🇸 United States

Launched Mar 29, 2023 from Cape Canaveral Space Force Station

Loading…

Next Passes (next 24 hours)

TLE

FreshSource: CelesTrak SupGP

Epoch: Sep 14, 2026, 13:20 UTC

1 56113C 23046W   26257.55604167 -.00014783  00000+0 -53546-3 0  2574
2 56113  43.0008 174.5982 0001667 264.4181 327.7639 15.27584128    16

Track STARLINK-6113 in real time with AllMySat

Download on the App Store